TimeEST,TemperatureF,Dew PointF,Humidity,Sea Level PressureIn,VisibilityMPH,Wind Direction,Wind SpeedMPH,Gust SpeedMPH,PrecipitationIn,Events,Conditions,WindDirDegrees,DateUTC
12:53 AM,26.1,19.9,78,30.20,10.0,Calm,Calm,-,N/A,,Overcast,0,2013-01-06 05:53:00
1:53 AM,28.0,21.0,75,30.18,9.0,East,3.5,-,N/A,,Overcast,80,2013-01-06 06:53:00
2:34 AM,28.4,21.2,74,30.16,3.0,Calm,Calm,-,0.00,Snow,Light Snow,0,2013-01-06 07:34:00
2:53 AM,27.0,23.0,85,30.16,2.0,Calm,Calm,-,0.00,Snow,Light Snow,0,2013-01-06 07:53:00
3:00 AM,28.4,23.0,80,30.16,1.2,SSE,3.5,-,0.00,Snow,Light Snow,150,2013-01-06 08:00:00
3:27 AM,28.4,24.8,86,30.14,3.0,SSE,3.5,-,0.00,Snow,Light Snow,150,2013-01-06 08:27:00
3:35 AM,28.4,24.8,86,30.14,4.0,Calm,Calm,-,0.00,Snow,Light Snow,0,2013-01-06 08:35:00
3:53 AM,28.0,25.0,88,30.13,8.0,Calm,Calm,-,0.00,,Overcast,0,2013-01-06 08:53:00
4:04 AM,28.4,24.8,86,30.13,7.0,Calm,Calm,-,N/A,,Overcast,0,2013-01-06 09:04:00
4:35 AM,28.4,24.8,86,30.12,6.0,Calm,Calm,-,N/A,,Overcast,0,2013-01-06 09:35:00
4:53 AM,28.0,25.0,88,30.10,6.0,Calm,Calm,-,N/A,,Overcast,0,2013-01-06 09:53:00
5:53 AM,27.0,24.1,89,30.09,5.0,Calm,Calm,-,N/A,,Overcast,0,2013-01-06 10:53:00
6:53 AM,27.0,24.1,89,30.09,5.0,Calm,Calm,-,N/A,,Overcast,0,2013-01-06 11:53:00
7:53 AM,27.0,23.0,85,30.08,4.0,Calm,Calm,-,N/A,,Mostly Cloudy,0,2013-01-06 12:53:00
8:53 AM,32.0,24.1,73,30.06,7.0,South,3.5,-,N/A,,Scattered Clouds,170,2013-01-06 13:53:00
9:53 AM,34.0,25.0,70,30.06,7.0,WNW,3.5,-,N/A,,Clear,290,2013-01-06 14:53:00
10:53 AM,37.0,25.0,62,30.05,8.0,SSW,4.6,-,N/A,,Clear,210,2013-01-06 15:53:00
11:53 AM,39.0,26.1,60,30.00,9.0,SW,5.8,-,N/A,,Clear,230,2013-01-06 16:53:00
12:53 PM,41.0,25.0,53,29.97,10.0,SW,8.1,-,N/A,,Clear,220,2013-01-06 17:53:00
1:53 PM,41.0,25.0,53,29.96,10.0,SW,6.9,-,N/A,,Clear,230,2013-01-06 18:53:00
2:53 PM,43.0,24.1,47,29.94,10.0,WSW,4.6,-,N/A,,Mostly Cloudy,240,2013-01-06 19:53:00
3:53 PM,43.0,24.1,47,29.94,10.0,SW,4.6,-,N/A,,Clear,230,2013-01-06 20:53:00
4:53 PM,41.0,25.0,53,29.94,10.0,SW,3.5,-,N/A,,Mostly Cloudy,230,2013-01-06 21:53:00
5:53 PM,35.1,25.0,67,29.96,10.0,Calm,Calm,-,N/A,,Mostly Cloudy,0,2013-01-06 22:53:00
6:53 PM,37.9,25.0,60,29.98,10.0,SW,6.9,-,N/A,,Clear,230,2013-01-06 23:53:00
7:53 PM,37.0,25.0,62,29.99,10.0,SW,5.8,-,N/A,,Scattered Clouds,230,2013-01-07 00:53:00
8:53 PM,36.0,24.1,62,29.98,10.0,WSW,4.6,-,N/A,,Clear,240,2013-01-07 01:53:00
9:53 PM,33.1,24.1,70,30.00,10.0,SW,6.9,-,N/A,,Clear,230,2013-01-07 02:53:00
10:53 PM,34.0,24.1,67,30.00,10.0,SW,8.1,-,N/A,,Partly Cloudy,230,2013-01-07 03:53:00
11:53 PM,36.0,25.0,64,30.01,10.0,SW,8.1,-,N/A,,Clear,230,2013-01-07 04:53:00